COMPASS 1

Satellite information

Favourite Embed

Satellite Type and Status

PAYLOADIN ORBIT

Key statistics

Satellite COMPASS 1 at a glance.

Uptime

6389

Days in orbit

Revolutions

≈ 15.7

Per day

Orbit

SSO

Sun Synchronous Orbit

Inclination

97.6

Latest

Satellite identification and parameters

Extended collection of information and parameters for COMPASS 1.

Object identification

Identified? True

Debris? False

Object name: COMPASS 1

International designator: 2008-021E

Object number (NORAD): 32787

Object ID (CCSDS): 32787

Country: GERMANY (GER)

Current information (Y/N): Y

RCS size: SMALL

Orbital parameters

Period: 91.697 minutes

Inclination: 97.6417 deg

SMA: 6735.917 km

Apoapsis: 361.33 km

Periapsis: 354.235 km

RAAN: 297.3356 deg

Eccentricy: 0.00052663

Argument of periapsis: 137.0258 deg

Mean anomaly: 223.1416 deg

Mean motion: 15.7039043 rev/day

Mean motion (dot): 0.00230762 rev/day2

B* drag term: 0.0018440866 1/REarth

Two-line elements (TLE)

Creation date: Oct. 25, 2025, 3:11 a.m.

Reference frame: TEME

Reference center: EARTH

Epoch: Oct. 24, 2025, 11:27 p.m. UTC

TLE line 0: 0 COMPASS 1

TLE line 1: 1 32787U 08021E 25297.97751118 .00230762 00000-0 18441-2 0 9992

TLE line 2: 2 32787 97.6417 297.3356 0005266 137.0258 223.1416 15.70390430953584

Live tracking on map

Real-time ground track for satellite COMPASS 1.

In-orbit conjunctions

There are no conjunctions computed for COMPASS 1, at the moment. Check back to stay up to date, as we update our databases every day.

Go to all conjunctions

Associated space launch

Indian Earth observation satellite. Launched alongside 9 nanosatellites.

COMPASS 1 was lifted into orbit during the mission ‘PSLV | Cartosat 2A’, on board a PSLV space rocket.

The launch took place on April 28, 2008, 3:53 a.m. from Satish Dhawan Space Centre Second Launch Pad.

For more information about the launch, click the button.

Launch to space PSLV | Cartosat 2A
PSLV | Cartosat 2A

Agency: N/A

Status: Launch Successful

Launch date: April 28, 2008, 3:53 a.m. UTC

Rocket: PSLV

Launch pad: Satish Dhawan Space Centre Second Launch Pad

Location: Satish Dhawan Space Centre, India

...

Latest news about this satellite

There are no fresh news available about this satellite. Check back as we update our databases every day.


Newsletter sign-up

Weekly statistics, charts and insights to help you stay on top of the space industry.